• In Russia
  • List of Countries
  • For 7 days
  • Water Temperature
  • Satellite Maps
  • Weather Map
  • Weather Widgets
  • user-avatar
    Login

    Hourly Weather Kinshasa

    Today, 25 April, Wednesday

    Time Temperature Precipitation Wind Pressure Humidity
    00:00 +24°C° 0 mm 1 mps 707 mmHg 90%
    01:00 +24°C° 0 mm 1 mps 707 mmHg 89%
    02:00 +24°C° 0 mm 1 mps 707 mmHg 89%
    03:00 +23°C° 0 mm 1 mps 707 mmHg 89%
    04:00 +23°C° 0 mm 1 mps 707 mmHg 89%
    05:00 +23°C° 0 mm 1 mps 707 mmHg 88%
    06:00 +24°C° 0 mm 1 mps 708 mmHg 87%
    07:00 +25°C° 0 mm 1 mps 708 mmHg 84%
    08:00 +27°C° 0 mm 1 mps 709 mmHg 75%
    09:00 +29°C° 0 mm 1 mps 709 mmHg 66%
    10:00 +31°C° 0 mm 2 mps 709 mmHg 57%
    11:00 +32°C° 0 mm 1 mps 709 mmHg 52%
    12:00 +34°C° 0 mm 1 mps 708 mmHg 47%
    13:00 +35°C° 0 mm 1 mps 708 mmHg 41%
    14:00 +34°C° 0 mm 1 mps 707 mmHg 45%
    15:00 +33°C° 0 mm 1 mps 707 mmHg 49%
    16:00 +32°C° 0 mm 1 mps 706 mmHg 53%
    17:00 +31°C° 0 mm 1 mps 706 mmHg 58%
    18:00 +29°C° 0 mm 1 mps 706 mmHg 63%
    19:00 +27°C° 0 mm 1 mps 706 mmHg 69%
    20:00 +27°C° 0 mm 1 mps 707 mmHg 71%
    21:00 +26°C° 0 mm 1 mps 707 mmHg 74%
    22:00 +26°C° 0 mm 1 mps 707 mmHg 77%
    23:00 +25°C° 0.1 mm 1 mps 707 mmHg 81%

    Tomorrow, 26 April, Thursday

    Time Temperature Precipitation Wind Pressure Humidity
    00:00 +24°C° 0.1 mm 1 mps 707 mmHg 84%
    01:00 +24°C° 0.1 mm 1 mps 707 mmHg 88%
    02:00 +24°C° 0.2 mm 1 mps 707 mmHg 90%
    03:00 +23°C° 0.2 mm 1 mps 707 mmHg 93%
    04:00 +23°C° 0.2 mm 1 mps 707 mmHg 96%
    05:00 +23°C° 0 mm 1 mps 707 mmHg 94%
    06:00 +24°C° 0 mm 2 mps 707 mmHg 93%
    07:00 +24°C° 0 mm 2 mps 708 mmHg 91%
    08:00 +26°C° 0 mm 2 mps 708 mmHg 79%
    09:00 +29°C° 0 mm 2 mps 709 mmHg 67%
    10:00 +31°C° 0 mm 2 mps 709 mmHg 54%
    11:00 +34°C° 0 mm 2 mps 708 mmHg 49%
    12:00 +35°C° 0 mm 2 mps 708 mmHg 44%
    13:00 +36°C° 0 mm 1 mps 707 mmHg 40%
    14:00 +35°C° 0 mm 1 mps 707 mmHg 42%
    15:00 +34°C° 0 mm 1 mps 706 mmHg 45%
    16:00 +33°C° 0 mm 1 mps 706 mmHg 48%
    17:00 +32°C° 0 mm 1 mps 706 mmHg 53%
    18:00 +30°C° 0 mm 1 mps 706 mmHg 58%
    19:00 +29°C° 0 mm 1 mps 706 mmHg 63%
    20:00 +27°C° 2.9 mm 1 mps 706 mmHg 73%
    21:00 +26°C° 2.9 mm 1 mps 706 mmHg 82%
    22:00 +25°C° 2.9 mm 1 mps 706 mmHg 92%
    23:00 +24°C° 1.7 mm 1 mps 706 mmHg 93%

    Day after tomorrow, 27 April, Friday

    Time Temperature Precipitation Wind Pressure Humidity
    00:00 +24°C° 1.7 mm 1 mps 706 mmHg 94%
    01:00 +24°C° 1.7 mm 1 mps 706 mmHg 95%
    02:00 +24°C° 0 mm 1 mps 706 mmHg 96%
    03:00 +24°C° 0 mm 1 mps 706 mmHg 96%
    04:00 +23°C° 0 mm 1 mps 707 mmHg 96%
    05:00 +24°C° 1.2 mm 1 mps 707 mmHg 96%
    06:00 +24°C° 1.2 mm 1 mps 707 mmHg 95%
    07:00 +24°C° 1.2 mm 1 mps 708 mmHg 95%
    08:00 +24°C° 3.5 mm 1 mps 708 mmHg 93%
    09:00 +25°C° 3.5 mm 2 mps 709 mmHg 91%
    10:00 +25°C° 3.5 mm 2 mps 709 mmHg 89%
    11:00 +27°C° 0.1 mm 2 mps 709 mmHg 81%
    12:00 +28°C° 0.1 mm 1 mps 708 mmHg 73%
    13:00 +30°C° 0.1 mm 1 mps 708 mmHg 65%
    14:00 +30°C° 0 mm 1 mps 707 mmHg 62%
    15:00 +30°C° 0 mm 1 mps 707 mmHg 60%
    16:00 +31°C° 0 mm 1 mps 706 mmHg 58%
    17:00 +29°C° 0 mm 1 mps 707 mmHg 64%
    18:00 +28°C° 0 mm 1 mps 707 mmHg 71%
    19:00 +26°C° 0 mm 1 mps 707 mmHg 77%
    20:00 +25°C° 0 mm 1 mps 707 mmHg 80%
    21:00 +25°C° 0 mm 1 mps 707 mmHg 82%
    22:00 +24°C° 0 mm 1 mps 708 mmHg 85%
    23:00 +24°C° 0 mm 1 mps 708 mmHg 86%

    28 April, Saturday

    Time Temperature Precipitation Wind Pressure Humidity
    00:00 +23°C° 0 mm 1 mps 708 mmHg 88%
    01:00 +23°C° 0 mm 1 mps 708 mmHg 89%
    02:00 +23°C° 0 mm 1 mps 707 mmHg 90%
    03:00 +22°C° 0 mm 1 mps 707 mmHg 91%
    04:00 +22°C° 0 mm 1 mps 706 mmHg 93%
    05:00 +23°C° 0 mm 1 mps 707 mmHg 90%
    06:00 +23°C° 0 mm 2 mps 707 mmHg 87%
    07:00 +24°C° 0 mm 2 mps 708 mmHg 84%
    08:00 +27°C° 0 mm 2 mps 708 mmHg 74%
    09:00 +29°C° 0 mm 2 mps 709 mmHg 64%
    10:00 +32°C° 0 mm 1 mps 710 mmHg 54%
    11:00 +33°C° 0 mm 1 mps 709 mmHg 50%
    12:00 +34°C° 0 mm 1 mps 708 mmHg 46%
    13:00 +35°C° 0 mm 1 mps 707 mmHg 42%
    14:00 +34°C° 0 mm 1 mps 707 mmHg 47%
    15:00 +33°C° 0 mm 1 mps 706 mmHg 52%
    16:00 +32°C° 0 mm 1 mps 706 mmHg 57%
    17:00 +30°C° 0 mm 1 mps 706 mmHg 61%
    18:00 +29°C° 0 mm 1 mps 706 mmHg 64%
    19:00 +27°C° 0 mm 1 mps 707 mmHg 68%
    20:00 +27°C° 0.4 mm 1 mps 707 mmHg 72%
    21:00 +26°C° 0.4 mm 1 mps 707 mmHg 77%
    22:00 +25°C° 0.4 mm 1 mps 708 mmHg 81%
    23:00 +24°C° 1.1 mm 1 mps 707 mmHg 86%

    29 April, Sunday

    Time Temperature Precipitation Wind Pressure Humidity
    00:00 +24°C° 1.1 mm 1 mps 707 mmHg 91%
    01:00 +23°C° 1.1 mm 1 mps 707 mmHg 96%
    02:00 +23°C° 0.5 mm 1 mps 707 mmHg 96%
    03:00 +23°C° 0.5 mm 1 mps 707 mmHg 96%
    04:00 +23°C° 0.5 mm 1 mps 707 mmHg 97%
    05:00 +23°C° 0.1 mm 1 mps 707 mmHg 96%
    06:00 +24°C° 0.1 mm 1 mps 708 mmHg 95%
    07:00 +24°C° 0.1 mm 1 mps 708 mmHg 94%
    08:00 +26°C° 0.4 mm 1 mps 708 mmHg 86%
    09:00 +28°C° 0.4 mm 1 mps 709 mmHg 78%
    10:00 +30°C° 0.4 mm 1 mps 709 mmHg 70%
    11:00 +31°C° 0 mm 2 mps 709 mmHg 62%
    12:00 +34°C° 0 mm 2 mps 708 mmHg 54%
    13:00 +35°C° 0 mm 2 mps 707 mmHg 46%
    14:00 +34°C° 0 mm 2 mps 707 mmHg 49%
    15:00 +34°C° 0 mm 2 mps 706 mmHg 51%
    16:00 +32°C° 0 mm 1 mps 706 mmHg 54%
    17:00 +30°C° 1 mm 1 mps 706 mmHg 63%
    18:00 +28°C° 1 mm 2 mps 706 mmHg 73%
    19:00 +26°C° 1 mm 2 mps 707 mmHg 82%
    20:00 +25°C° 0.3 mm 1 mps 707 mmHg 86%
    21:00 +25°C° 0.3 mm 1 mps 707 mmHg 89%
    22:00 +24°C° 0.3 mm 1 mps 707 mmHg 93%
    23:00 +24°C° 0 mm 1 mps 707 mmHg 94%

    30 April, Monday

    Time Temperature Precipitation Wind Pressure Humidity
    00:00 +24°C° 0 mm 1 mps 707 mmHg 94%
    01:00 +23°C° 0 mm 1 mps 707 mmHg 95%
    02:00 +23°C° 0 mm 1 mps 706 mmHg 96%
    03:00 +23°C° 0 mm 1 mps 706 mmHg 96%
    04:00 +23°C° 0 mm 1 mps 706 mmHg 97%
    05:00 +23°C° 0 mm 1 mps 707 mmHg 95%
    06:00 +24°C° 0 mm 1 mps 707 mmHg 93%
    07:00 +24°C° 0 mm 1 mps 708 mmHg 92%
    08:00 +27°C° 0 mm 1 mps 708 mmHg 79%
    09:00 +30°C° 0 mm 1 mps 708 mmHg 66%
    10:00 +32°C° 0 mm 2 mps 709 mmHg 53%
    11:00 +34°C° 0 mm 1 mps 708 mmHg 48%
    12:00 +35°C° 0 mm 1 mps 707 mmHg 43%
    13:00 +37°C° 0 mm 1 mps 706 mmHg 38%
    14:00 +36°C° 0 mm 1 mps 706 mmHg 39%
    15:00 +36°C° 0 mm 1 mps 705 mmHg 40%
    16:00 +35°C° 0 mm 1 mps 705 mmHg 41%
    17:00 +33°C° 0 mm 1 mps 705 mmHg 48%
    18:00 +31°C° 0 mm 1 mps 705 mmHg 56%
    19:00 +29°C° 0 mm 1 mps 705 mmHg 63%
    20:00 +28°C° 0 mm 1 mps 705 mmHg 65%
    21:00 +27°C° 0 mm 1 mps 706 mmHg 68%
    22:00 +27°C° 0 mm 1 mps 706 mmHg 71%
    23:00 +26°C° 0 mm 1 mps 706 mmHg 74%
    Show more